KD8CJ Weather Reports


Display with metric or nautical units.
time (UTC)temp
F
wind
direction
speed
MPH
gust
MPH
rain 1hr
in
rain 24hr
in
rain mn
in
humidity
%
barometer
mb
20260510143022 53 64 1.0 4.0 0.00 0.39 0.08 84 1015.4
20260510141527 51 128 0.0 1.0 0.00 0.39 0.08 86 1015.6
20260510140010 50 153 0.0 2.0 0.00 0.39 0.08 89 1015.4
20260510134516 50 138 0.0 0.0 0.00 0.39 0.08 90 1015.4
20260510133018 49 138 0.0 0.0 0.00 0.39 0.08 92 1015.2
20260510131523 48 13 0.0 0.0 0.00 0.39 0.08 93 1015.2
20260510130030 48 13 0.0 0.0 0.01 0.39 0.08 93 1014.9
20260510124515 48 13 0.0 0.0 0.01 0.39 0.08 93 1014.6
20260510123017 48 13 0.0 0.0 0.02 0.39 0.08 93 1014.4
20260510121523 48 13 0.0 0.0 0.02 0.39 0.08 93 1014.1
20260510120030 48 13 0.0 0.0 0.01 0.38 0.07 93 1014.0
20260510114529 48 13 0.0 0.0 0.01 0.38 0.07 93 1013.3
20260510113015 47 13 0.0 0.0 0.00 0.37 0.06 93 1013.4
20260510111530 47 13 0.0 0.0 0.00 0.38 0.06 93 1013.0
20260510110009 48 13 0.0 0.0 0.00 0.41 0.06 94 1012.5
20260510104512 48 13 0.0 0.0 0.00 0.43 0.06 94 1012.1
20260510103012 48 13 0.0 1.0 0.00 0.43 0.06 94 1011.7
20260510101516 49 13 0.0 1.0 0.00 0.43 0.06 94 1011.4
20260510100021 50 79 0.0 0.0 0.00 0.43 0.06 94 1011.3
20260510094506 50 79 0.0 0.0 0.00 0.43 0.06 95 1011.0
20260510093008 51 79 0.0 1.0 0.00 0.43 0.06 95 1010.8
20260510091527 51 79 0.0 0.0 0.00 0.43 0.06 95 1010.5
20260510090016 52 79 0.0 1.0 0.00 0.43 0.06 95 1010.4
20260510084522 51 122 0.0 1.0 0.00 0.44 0.06 95 1010.1
20260510083004 50 122 0.0 0.0 0.00 0.45 0.06 95 1009.8
20260510081523 50 276 0.0 1.0 0.00 0.45 0.06 94 1009.5
20260510080015 50 276 0.0 1.0 0.00 0.45 0.06 94 1009.5
20260510074519 51 276 0.0 0.0 0.00 0.45 0.06 94 1009.3
20260510073033 52 276 0.0 0.0 0.00 0.45 0.06 93 1009.3
20260510071511 53 276 0.0 1.0 0.00 0.45 0.06 94 1009.3
20260510070021 53 276 0.0 1.0 0.00 0.45 0.06 94 1009.2
20260510064542 53 261 0.0 1.0 0.00 0.45 0.06 93 1008.9
20260510063024 53 260 0.0 3.0 0.00 0.46 0.06 93 1008.9
20260510061538 53 263 0.0 1.0 0.00 0.46 0.06 93 1008.8
20260510060024 53 263 0.0 1.0 0.01 0.46 0.06 92 1008.8
20260510054510 54 330 0.0 0.0 0.03 0.46 0.06 92 1008.7
20260510053016 54 330 0.0 0.0 0.06 0.46 0.06 90 1008.7
20260510051522 56 330 0.0 7.0 0.06 0.46 0.06 88 1008.8
20260510050026 56 181 1.0 5.0 0.05 0.47 0.05 88 1009.2
20260510044511 55 259 2.0 9.0 0.03 0.45 0.03 95 1009.4
20260510043015 53 288 0.0 1.0 0.00 0.43 0.00 94 1008.3
20260510041520 53 300 0.0 1.0 0.00 0.43 0.00 94 1008.4
20260510040022 54 300 0.0 1.0 0.00 0.44 0.00 93 1008.5
20260510034525 54 300 0.0 1.0 0.05 0.44 0.44 94 1008.4
20260510033013 55 300 0.0 1.0 0.05 0.44 0.44 94 1008.5
20260510031514 55 68 0.0 1.0 0.05 0.44 0.44 94 1008.3
20260510030019 55 68 1.0 2.0 0.10 0.44 0.44 94 1008.1
20260510024528 55 272 0.0 1.0 0.05 0.40 0.39 93 1007.7
20260510023025 55 272 0.0 1.0 0.05 0.40 0.39 93 1007.9
20260510021513 55 264 0.0 1.0 0.05 0.41 0.39 93 1007.9
20260510020020 54 246 0.0 1.0 0.00 0.36 0.34 92 1007.7
20260510014526 55 246 0.0 0.0 0.13 0.36 0.34 91 1007.9
20260510013025 55 246 0.0 0.0 0.21 0.36 0.34 90 1007.9
20260510011528 56 246 0.0 1.0 0.21 0.36 0.34 89 1007.7
20260510010013 57 246 0.0 4.0 0.21 0.36 0.34 86 1008.0
20260510004518 60 104 1.0 5.0 0.08 0.23 0.21 79 1007.7
20260510003034 66 60 2.0 4.0 0.00 0.15 0.13 60 1006.6
20260510001528 67 103 2.0 5.0 0.00 0.16 0.13 55 1005.7
20260510000030 67 278 2.0 7.0 0.00 0.17 0.13 54 1005.7
20260509234521 67 313 3.0 11.0 0.00 0.17 0.13 54 1005.6
20260509233031 68 305 3.0 13.0 0.00 0.17 0.13 53 1005.4
20260509231519 69 251 2.0 11.0 0.00 0.17 0.13 51 1005.4
20260509230024 69 225 4.0 13.0 0.00 0.17 0.13 50 1005.3
20260509224528 69 264 3.0 9.0 0.00 0.17 0.13 50 1005.2
20260509223016 70 257 4.0 10.0 0.00 0.17 0.13 49 1005.2
20260509221504 70 300 4.0 11.0 0.00 0.17 0.13 51 1005.2
20260509220006 70 147 3.0 14.0 0.00 0.17 0.13 50 1005.3
20260509214508 70 217 4.0 10.0 0.00 0.17 0.13 51 1005.4
20260509213013 71 282 4.0 8.0 0.00 0.17 0.13 51 1005.4
20260509211516 71 264 4.0 10.0 0.00 0.17 0.13 51 1005.4
20260509210004 71 302 4.0 9.0 0.00 0.17 0.13 51 1005.8
20260509204505 71 255 3.0 8.0 0.00 0.17 0.13 53 1006.0
20260509203008 71 282 3.0 8.0 0.00 0.17 0.13 51 1006.1
20260509201515 70 311 3.0 7.0 0.00 0.17 0.13 50 1006.1
20260509200020 70 229 4.0 10.0 0.00 0.17 0.13 50 1006.4
20260509194506 69 200 3.0 12.0 0.00 0.17 0.13 53 1006.5
20260509193007 69 286 3.0 10.0 0.00 0.17 0.13 56 1006.7
20260509191510 69 252 3.0 10.0 0.00 0.17 0.13 56 1007.0
20260509190019 69 243 2.0 11.0 0.00 0.17 0.13 55 1007.0
20260509184526 68 147 5.0 11.0 0.00 0.17 0.13 55 1007.2
20260509183032 67 273 3.0 11.0 0.00 0.17 0.13 58 1007.2
20260509181508 68 257 3.0 9.0 0.00 0.17 0.13 58 1007.3
20260509180017 67 263 2.0 10.0 0.00 0.17 0.13 61 1007.2
20260509174518 67 245 4.0 9.0 0.00 0.17 0.13 60 1007.5
20260509173026 66 190 2.0 6.0 0.00 0.17 0.13 67 1007.4
20260509171534 65 269 3.0 8.0 0.00 0.17 0.13 66 1007.5
20260509170008 63 273 1.0 8.0 0.00 0.17 0.13 71 1007.6
20260509164513 63 239 2.0 6.0 0.00 0.17 0.13 71 1007.7
20260509163027 62 257 2.0 7.0 0.00 0.17 0.13 74 1007.6
20260509161527 61 296 3.0 9.0 0.00 0.17 0.13 74 1007.6
20260509160026 61 254 1.0 5.0 0.00 0.17 0.13 76 1007.5
20260509154508 59 255 2.0 6.0 0.00 0.17 0.13 80 1007.7
20260509153024 58 306 1.0 3.0 0.00 0.17 0.13 84 1007.7
20260509151522 56 263 1.0 5.0 0.00 0.17 0.13 85 1007.7
20260509150024 57 288 1.0 5.0 0.00 0.17 0.13 85 1007.5
20260509144526 56 300 1.0 5.0 0.00 0.17 0.13 87 1007.4